Time,TemperatureF,DewpointF,PressureIn,WindDirection,WindDirectionDegrees,WindSpeedMPH,WindSpeedGustMPH,Humidity,HourlyPrecipIn,Conditions,Clouds,dailyrainin,SoftwareType,DateUTC
2013-06-18 00:02:00,68.9,53.5,29.87,NNW,327,0.0,0.0,58,0.00,,,0.00,Wunderground v.1.15,2013-06-18 05:02:00,
2013-06-18 00:07:00,68.8,53.4,29.87,NW,326,0.0,0.0,58,0.00,,,0.00,Wunderground v.1.15,2013-06-18 05:07:00,
2013-06-18 00:12:00,68.8,53.4,29.87,NNW,327,0.0,0.0,58,0.00,,,0.00,Wunderground v.1.15,2013-06-18 05:12:00,
2013-06-18 00:18:00,68.8,53.4,29.87,NNW,327,0.0,0.0,58,0.00,,,0.00,Wunderground v.1.15,2013-06-18 05:18:00,
2013-06-18 00:23:00,68.8,53.4,29.87,NNW,327,0.0,0.0,58,0.00,,,0.00,Wunderground v.1.15,2013-06-18 05:23:00,
2013-06-18 00:28:00,68.6,53.2,29.87,NNW,327,0.0,0.0,58,0.00,,,0.00,Wunderground v.1.15,2013-06-18 05:28:00,
2013-06-18 00:34:00,68.3,53.9,29.87,NNW,327,2.0,4.0,60,0.00,,,0.00,Wunderground v.1.15,2013-06-18 05:34:00,
2013-06-18 00:39:00,68.1,53.7,29.87,NW,324,2.0,4.0,60,0.00,,,0.00,Wunderground v.1.15,2013-06-18 05:39:00,
2013-06-18 00:44:00,67.9,53.5,29.87,NW,324,2.0,2.0,60,0.00,,,0.00,Wunderground v.1.15,2013-06-18 05:44:00,
2013-06-18 00:49:00,67.8,53.9,29.88,NW,324,2.0,2.0,61,0.00,,,0.00,Wunderground v.1.15,2013-06-18 05:49:00,
2013-06-18 00:54:00,67.6,53.7,29.88,NW,324,0.0,2.0,61,0.00,,,0.00,Wunderground v.1.15,2013-06-18 05:54:00,
2013-06-18 00:59:00,67.3,53.8,29.88,NW,324,1.0,2.0,62,0.00,,,0.00,Wunderground v.1.15,2013-06-18 05:59:00,
2013-06-18 01:05:00,67.1,53.6,29.87,NW,324,0.0,1.0,62,0.00,,,0.00,Wunderground v.1.15,2013-06-18 06:05:00,
2013-06-18 01:10:00,67.1,54.1,29.87,NW,324,0.0,0.0,63,0.00,,,0.00,Wunderground v.1.15,2013-06-18 06:10:00,
2013-06-18 01:15:00,66.9,53.9,29.87,NW,324,0.0,0.0,63,0.00,,,0.00,Wunderground v.1.15,2013-06-18 06:15:00,
2013-06-18 01:20:00,66.9,53.9,29.87,NW,324,0.0,0.0,63,0.00,,,0.00,Wunderground v.1.15,2013-06-18 06:20:00,
2013-06-18 01:26:00,66.9,53.9,29.87,NW,324,0.0,0.0,63,0.00,,,0.00,Wunderground v.1.15,2013-06-18 06:26:00,
2013-06-18 01:31:00,66.9,53.9,29.87,NW,324,0.0,0.0,63,0.00,,,0.00,Wunderground v.1.15,2013-06-18 06:31:00,
2013-06-18 01:36:00,66.8,53.8,29.87,NW,324,0.0,0.0,63,0.00,,,0.00,Wunderground v.1.15,2013-06-18 06:36:00,
2013-06-18 01:41:00,66.8,54.2,29.87,NW,324,0.0,0.0,64,0.00,,,0.00,Wunderground v.1.15,2013-06-18 06:41:00,
2013-06-18 01:47:00,66.9,54.3,29.86,NW,324,0.0,4.0,64,0.00,,,0.00,Wunderground v.1.15,2013-06-18 06:47:00,
2013-06-18 01:52:00,67.1,54.1,29.86,NW,324,0.0,0.0,63,0.00,,,0.00,Wunderground v.1.15,2013-06-18 06:52:00,
2013-06-18 01:57:00,67.3,54.3,29.86,NW,324,0.0,2.0,63,0.00,,,0.00,Wunderground v.1.15,2013-06-18 06:57:00,
2013-06-18 02:02:00,67.1,54.5,29.86,NW,324,3.0,4.0,64,0.00,,,0.00,Wunderground v.1.15,2013-06-18 07:02:00,
2013-06-18 02:07:00,67.1,54.5,29.86,NW,324,0.0,4.0,64,0.00,,,0.00,Wunderground v.1.15,2013-06-18 07:07:00,
2013-06-18 02:12:00,66.9,54.3,29.86,NW,324,0.0,2.0,64,0.00,,,0.00,Wunderground v.1.15,2013-06-18 07:12:00,
2013-06-18 02:17:00,66.8,54.2,29.86,NW,324,0.0,2.0,64,0.00,,,0.00,Wunderground v.1.15,2013-06-18 07:17:00,
2013-06-18 02:22:00,66.4,53.8,29.86,NW,324,0.0,0.0,64,0.00,,,0.00,Wunderground v.1.15,2013-06-18 07:22:00,
2013-06-18 02:27:00,66.3,54.2,29.86,NW,324,0.0,0.0,65,0.00,,,0.00,Wunderground v.1.15,2013-06-18 07:27:00,
2013-06-18 02:32:00,66.0,53.9,29.86,NW,324,0.0,1.0,65,0.00,,,0.00,Wunderground v.1.15,2013-06-18 07:32:00,
2013-06-18 02:37:00,65.8,54.1,29.86,NW,324,0.0,1.0,66,0.00,,,0.00,Wunderground v.1.15,2013-06-18 07:37:00,
2013-06-18 02:42:00,65.6,53.9,29.86,NW,324,0.0,0.0,66,0.00,,,0.00,Wunderground v.1.15,2013-06-18 07:42:00,
2013-06-18 02:47:00,65.6,53.9,29.86,NNW,337,6.0,7.0,66,0.00,,,0.00,Wunderground v.1.15,2013-06-18 07:47:00,
2013-06-18 02:52:00,65.3,54.1,29.86,NNW,337,0.0,5.0,67,0.00,,,0.00,Wunderground v.1.15,2013-06-18 07:52:00,
2013-06-18 02:57:00,65.0,53.8,29.86,NNW,335,4.0,7.0,67,0.00,,,0.00,Wunderground v.1.15,2013-06-18 07:57:00,
2013-06-18 03:02:00,64.8,54.0,29.86,NNW,344,6.0,6.0,68,0.00,,,0.00,Wunderground v.1.15,2013-06-18 08:02:00,
2013-06-18 03:07:00,64.8,54.0,29.86,NW,313,6.0,7.0,68,0.00,,,0.00,Wunderground v.1.15,2013-06-18 08:07:00,
2013-06-18 03:12:00,64.5,54.1,29.86,NNW,336,6.0,6.0,69,0.00,,,0.00,Wunderground v.1.15,2013-06-18 08:12:00,
2013-06-18 03:17:00,64.2,54.2,29.87,NNW,336,4.0,7.0,70,0.00,,,0.00,Wunderground v.1.15,2013-06-18 08:17:00,
2013-06-18 03:22:00,64.0,54.4,29.87,NW,323,5.0,7.0,71,0.00,,,0.00,Wunderground v.1.15,2013-06-18 08:22:00,
2013-06-18 03:27:00,64.0,54.4,29.87,NNW,329,7.0,10.0,71,0.00,,,0.00,Wunderground v.1.15,2013-06-18 08:27:00,
2013-06-18 03:32:00,64.0,54.0,29.87,NNW,331,4.0,5.0,70,0.00,,,0.00,Wunderground v.1.15,2013-06-18 08:32:00,
2013-06-18 03:38:00,64.2,54.2,29.87,NNW,331,4.0,5.0,70,0.00,,,0.00,Wunderground v.1.15,2013-06-18 08:38:00,
2013-06-18 03:43:00,64.3,54.3,29.87,NNW,331,0.0,5.0,70,0.00,,,0.00,Wunderground v.1.15,2013-06-18 08:43:00,
2013-06-18 03:48:00,64.5,54.5,29.87,NNW,331,0.0,5.0,70,0.00,,,0.00,Wunderground v.1.15,2013-06-18 08:48:00,
2013-06-18 03:53:00,64.3,54.3,29.87,NNW,331,0.0,1.0,70,0.00,,,0.00,Wunderground v.1.15,2013-06-18 08:53:00,
2013-06-18 03:58:00,64.2,54.6,29.87,WNW,303,0.0,6.0,71,0.00,,,0.00,Wunderground v.1.15,2013-06-18 08:58:00,
2013-06-18 04:03:00,63.9,54.3,29.88,NW,304,2.0,5.0,71,0.00,,,0.00,Wunderground v.1.15,2013-06-18 09:03:00,
2013-06-18 04:08:00,63.5,54.3,29.88,NNW,330,4.0,8.0,72,0.00,,,0.00,Wunderground v.1.15,2013-06-18 09:08:00,
2013-06-18 04:13:00,63.2,54.0,29.88,North,360,4.0,9.0,72,0.00,,,0.00,Wunderground v.1.15,2013-06-18 09:13:00,
2013-06-18 04:18:00,63.1,54.3,29.89,NNW,327,0.0,9.0,73,0.00,,,0.00,Wunderground v.1.15,2013-06-18 09:18:00,
2013-06-18 04:23:00,63.1,54.7,29.89,NNW,327,2.0,5.0,74,0.00,,,0.00,Wunderground v.1.15,2013-06-18 09:23:00,
2013-06-18 04:28:00,63.1,54.7,29.89,NNW,327,0.0,5.0,74,0.00,,,0.00,Wunderground v.1.15,2013-06-18 09:28:00,
2013-06-18 04:33:00,63.1,55.0,29.89,NNW,348,3.0,6.0,75,0.00,,,0.00,Wunderground v.1.15,2013-06-18 09:33:00,
2013-06-18 04:38:00,63.4,55.3,29.89,North,351,2.0,7.0,75,0.00,,,0.00,Wunderground v.1.15,2013-06-18 09:38:00,
2013-06-18 04:44:00,63.9,55.8,29.89,NNE,13,3.0,7.0,75,0.00,,,0.00,Wunderground v.1.15,2013-06-18 09:44:00,
2013-06-18 04:49:00,64.0,55.9,29.90,NE,39,4.0,10.0,75,0.00,,,0.00,Wunderground v.1.15,2013-06-18 09:49:00,
2013-06-18 04:54:00,64.0,55.5,29.90,NNE,24,5.0,9.0,74,0.00,,,0.00,Wunderground v.1.15,2013-06-18 09:54:00,
2013-06-18 04:59:00,63.9,55.8,29.90,NNE,24,5.0,9.0,75,0.00,,,0.00,Wunderground v.1.15,2013-06-18 09:59:00,
2013-06-18 05:04:00,63.5,55.4,29.90,NE,36,7.0,10.0,75,0.00,,,0.00,Wunderground v.1.15,2013-06-18 10:04:00,
2013-06-18 05:09:00,63.2,55.1,29.90,NE,38,7.0,12.0,75,0.00,,,0.00,Wunderground v.1.15,2013-06-18 10:09:00,
2013-06-18 05:14:00,63.1,55.4,29.90,NNE,28,8.0,11.0,76,0.00,,,0.00,Wunderground v.1.15,2013-06-18 10:14:00,
2013-06-18 05:19:00,62.6,54.9,29.91,NE,44,8.0,11.0,76,0.00,,,0.00,Wunderground v.1.15,2013-06-18 10:19:00,
2013-06-18 05:24:00,62.1,54.8,29.91,NNE,16,5.0,10.0,77,0.00,,,0.00,Wunderground v.1.15,2013-06-18 10:24:00,
2013-06-18 05:29:00,61.8,54.9,29.91,NNE,24,2.0,10.0,78,0.00,,,0.00,Wunderground v.1.15,2013-06-18 10:29:00,
2013-06-18 05:34:00,61.5,55.3,29.91,NNE,22,0.0,7.0,80,0.00,,,0.00,Wunderground v.1.15,2013-06-18 10:34:00,
2013-06-18 05:39:00,61.2,55.3,29.91,NNE,13,7.0,8.0,81,0.00,,,0.00,Wunderground v.1.15,2013-06-18 10:39:00,
2013-06-18 05:44:00,60.9,56.0,29.91,NNE,21,0.0,6.0,84,0.00,,,0.00,Wunderground v.1.15,2013-06-18 10:44:00,
2013-06-18 05:49:00,60.7,56.5,29.92,NE,43,3.0,6.0,86,0.00,,,0.00,Wunderground v.1.15,2013-06-18 10:49:00,
2013-06-18 05:54:00,60.5,56.6,29.92,North,360,3.0,10.0,87,0.00,,,0.00,Wunderground v.1.15,2013-06-18 10:54:00,
2013-06-18 05:59:00,60.4,56.8,29.92,NE,44,6.0,10.0,88,0.00,,,0.00,Wunderground v.1.15,2013-06-18 10:59:00,
2013-06-18 06:04:00,60.2,56.9,29.92,NNE,12,4.0,9.0,89,0.00,,,0.00,Wunderground v.1.15,2013-06-18 11:04:00,
2013-06-18 06:09:00,60.2,56.9,29.92,East,99,0.0,9.0,89,0.00,,,0.00,Wunderground v.1.15,2013-06-18 11:09:00,
2013-06-18 06:14:00,60.1,56.8,29.92,ENE,62,1.0,9.0,89,0.00,,,0.00,Wunderground v.1.15,2013-06-18 11:14:00,
2013-06-18 06:19:00,60.1,56.8,29.92,NNE,30,5.0,9.0,89,0.00,,,0.00,Wunderground v.1.15,2013-06-18 11:19:00,
2013-06-18 06:25:00,60.1,56.8,29.92,ENE,68,4.0,9.0,89,0.00,,,0.00,Wunderground v.1.15,2013-06-18 11:25:00,
2013-06-18 06:30:00,59.9,56.6,29.92,NNE,20,0.0,2.0,89,0.00,,,0.00,Wunderground v.1.15,2013-06-18 11:30:00,
2013-06-18 06:35:00,59.8,56.6,29.92,ENE,58,2.0,7.0,89,0.00,,,0.00,Wunderground v.1.15,2013-06-18 11:35:00,
2013-06-18 06:40:00,59.9,56.6,29.92,ENE,60,0.0,2.0,89,0.00,,,0.00,Wunderground v.1.15,2013-06-18 11:40:00,
2013-06-18 06:45:00,59.9,56.6,29.92,NNE,18,7.0,9.0,89,0.00,,,0.00,Wunderground v.1.15,2013-06-18 11:45:00,
2013-06-18 06:50:00,59.9,56.6,29.92,NNE,24,3.0,6.0,89,0.00,,,0.00,Wunderground v.1.15,2013-06-18 11:50:00,
2013-06-18 06:55:00,59.8,56.6,29.92,ENE,71,7.0,9.0,89,0.00,,,0.00,Wunderground v.1.15,2013-06-18 11:55:00,
2013-06-18 07:00:00,59.8,56.6,29.92,North,360,7.0,7.0,89,0.00,,,0.00,Wunderground v.1.15,2013-06-18 12:00:00,
2013-06-18 07:05:00,59.9,56.6,29.92,ENE,78,2.0,10.0,89,0.00,,,0.00,Wunderground v.1.15,2013-06-18 12:05:00,
2013-06-18 07:10:00,60.2,56.9,29.92,NE,53,11.0,11.0,89,0.00,,,0.00,Wunderground v.1.15,2013-06-18 12:10:00,
2013-06-18 07:15:00,60.2,56.6,29.92,ENE,57,10.0,13.0,88,0.00,,,0.00,Wunderground v.1.15,2013-06-18 12:15:00,
2013-06-18 07:20:00,60.5,56.6,29.92,NE,44,10.0,12.0,87,0.00,,,0.00,Wunderground v.1.15,2013-06-18 12:20:00,
2013-06-18 07:25:00,60.7,56.8,29.92,NE,51,0.0,12.0,87,0.00,,,0.00,Wunderground v.1.15,2013-06-18 12:25:00,
2013-06-18 07:30:00,61.0,56.8,29.92,NE,45,0.0,3.0,86,0.00,,,0.00,Wunderground v.1.15,2013-06-18 12:30:00,
2013-06-18 07:35:00,61.5,56.9,29.92,NNE,28,0.0,6.0,85,0.00,,,0.00,Wunderground v.1.15,2013-06-18 12:35:00,
2013-06-18 07:40:00,62.4,56.8,29.92,NE,52,4.0,5.0,82,0.00,,,0.00,Wunderground v.1.15,2013-06-18 12:40:00,
2013-06-18 07:45:00,62.7,56.8,29.92,East,94,0.0,8.0,81,0.00,,,0.00,Wunderground v.1.15,2013-06-18 12:45:00,
2013-06-18 07:50:00,63.4,56.4,29.92,NE,47,0.0,2.0,78,0.00,,,0.00,Wunderground v.1.15,2013-06-18 12:50:00,
2013-06-18 07:55:00,64.0,56.3,29.92,ENE,59,0.0,2.0,76,0.00,,,0.00,Wunderground v.1.15,2013-06-18 12:55:00,
2013-06-18 08:00:00,64.5,56.0,29.92,ENE,59,0.0,0.0,74,0.00,,,0.00,Wunderground v.1.15,2013-06-18 13:00:00,
2013-06-18 08:05:00,65.2,55.9,29.92,ENE,59,0.0,0.0,72,0.00,,,0.00,Wunderground v.1.15,2013-06-18 13:05:00,
2013-06-18 08:10:00,65.6,55.9,29.92,ENE,59,0.0,0.0,71,0.00,,,0.00,Wunderground v.1.15,2013-06-18 13:10:00,
2013-06-18 08:15:00,66.1,56.0,29.92,ENE,59,0.0,0.0,70,0.00,,,0.00,Wunderground v.1.15,2013-06-18 13:15:00,
2013-06-18 08:20:00,66.0,55.5,29.92,South,171,2.0,2.0,69,0.00,,,0.00,Wunderground v.1.15,2013-06-18 13:20:00,
2013-06-18 08:25:00,66.1,55.6,29.92,SE,134,0.0,3.0,69,0.00,,,0.00,Wunderground v.1.15,2013-06-18 13:25:00,
2013-06-18 08:31:00,66.9,56.0,29.92,ESE,105,0.0,1.0,68,0.00,,,0.00,Wunderground v.1.15,2013-06-18 13:31:00,
2013-06-18 08:36:00,67.6,55.8,29.92,ESE,105,0.0,1.0,66,0.00,,,0.00,Wunderground v.1.15,2013-06-18 13:36:00,
2013-06-18 08:41:00,68.3,56.5,29.92,ESE,104,0.0,0.0,66,0.00,,,0.00,Wunderground v.1.15,2013-06-18 13:41:00,
2013-06-18 08:46:00,68.8,55.7,29.93,NNE,15,5.0,6.0,63,0.00,,,0.00,Wunderground v.1.15,2013-06-18 13:46:00,
2013-06-18 08:51:00,68.1,55.5,29.93,NNE,18,5.0,5.0,64,0.00,,,0.00,Wunderground v.1.15,2013-06-18 13:51:00,
2013-06-18 08:56:00,67.8,55.6,29.93,NE,36,0.0,7.0,65,0.00,,,0.00,Wunderground v.1.15,2013-06-18 13:56:00,
2013-06-18 09:01:00,68.4,55.7,29.93,NE,36,0.0,2.0,64,0.00,,,0.00,Wunderground v.1.15,2013-06-18 14:01:00,
2013-06-18 09:06:00,68.6,56.4,29.93,NNE,15,5.0,7.0,65,0.00,,,0.00,Wunderground v.1.15,2013-06-18 14:06:00,
2013-06-18 09:11:00,68.3,56.5,29.93,NNE,23,0.0,5.0,66,0.00,,,0.00,Wunderground v.1.15,2013-06-18 14:11:00,
2013-06-18 09:16:00,68.3,56.5,29.94,NNE,15,3.0,9.0,66,0.00,,,0.00,Wunderground v.1.15,2013-06-18 14:16:00,
2013-06-18 09:21:00,68.4,56.2,29.94,NNE,26,2.0,6.0,65,0.00,,,0.00,Wunderground v.1.15,2013-06-18 14:21:00,
2013-06-18 09:26:00,68.4,56.2,29.94,NNE,28,9.0,10.0,65,0.00,,,0.00,Wunderground v.1.15,2013-06-18 14:26:00,
2013-06-18 09:31:00,68.6,56.8,29.94,North,9,9.0,13.0,66,0.00,,,0.00,Wunderground v.1.15,2013-06-18 14:31:00,
2013-06-18 09:36:00,68.6,56.8,29.94,NNE,15,2.0,13.0,66,0.00,,,0.00,Wunderground v.1.15,2013-06-18 14:36:00,
2013-06-18 09:41:00,68.4,55.7,29.94,NNE,17,8.0,11.0,64,0.00,,,0.00,Wunderground v.1.15,2013-06-18 14:41:00,
2013-06-18 09:46:00,68.4,55.7,29.94,North,360,9.0,11.0,64,0.00,,,0.00,Wunderground v.1.15,2013-06-18 14:46:00,
2013-06-18 09:51:00,68.8,56.1,29.94,North,360,3.0,7.0,64,0.00,,,0.00,Wunderground v.1.15,2013-06-18 14:51:00,
2013-06-18 09:56:00,68.9,53.0,29.94,NNE,17,3.0,10.0,57,0.00,,,0.00,Wunderground v.1.15,2013-06-18 14:56:00,
2013-06-18 10:01:00,69.1,54.2,29.94,North,5,4.0,6.0,59,0.00,,,0.00,Wunderground v.1.15,2013-06-18 15:01:00,
2013-06-18 10:06:00,69.3,54.4,29.94,NNE,15,3.0,12.0,59,0.00,,,0.00,Wunderground v.1.15,2013-06-18 15:06:00,
2013-06-18 10:11:00,69.4,54.0,29.94,NE,38,9.0,9.0,58,0.00,,,0.00,Wunderground v.1.15,2013-06-18 15:11:00,
2013-06-18 10:16:00,69.8,53.9,29.94,North,360,10.0,12.0,57,0.00,,,0.00,Wunderground v.1.15,2013-06-18 15:16:00,
2013-06-18 10:21:00,70.3,54.8,29.94,NNE,19,9.0,9.0,58,0.00,,,0.00,Wunderground v.1.15,2013-06-18 15:21:00,
2013-06-18 10:26:00,70.3,54.3,29.94,North,349,5.0,11.0,57,0.00,,,0.00,Wunderground v.1.15,2013-06-18 15:26:00,
2013-06-18 10:31:00,70.1,55.1,29.95,North,10,5.0,7.0,59,0.00,,,0.00,Wunderground v.1.15,2013-06-18 15:31:00,
2013-06-18 10:36:00,69.6,55.1,29.95,NNW,336,8.0,11.0,60,0.00,,,0.00,Wunderground v.1.15,2013-06-18 15:36:00,
2013-06-18 10:41:00,69.9,54.4,29.95,NNE,28,6.0,11.0,58,0.00,,,0.00,Wunderground v.1.15,2013-06-18 15:41:00,
2013-06-18 10:46:00,70.4,54.0,29.94,NNE,28,0.0,11.0,56,0.00,,,0.00,Wunderground v.1.15,2013-06-18 15:46:00,
2013-06-18 10:51:00,70.8,53.8,29.94,NNE,17,6.0,10.0,55,0.00,,,0.00,Wunderground v.1.15,2013-06-18 15:51:00,
2013-06-18 10:56:00,70.6,53.6,29.94,NNE,30,9.0,12.0,55,0.00,,,0.00,Wunderground v.1.15,2013-06-18 15:56:00,
2013-06-18 11:01:00,70.6,52.6,29.94,NNE,28,6.0,10.0,53,0.00,,,0.00,Wunderground v.1.15,2013-06-18 16:01:00,
2013-06-18 11:06:00,71.3,53.3,29.94,NNE,29,5.0,11.0,53,0.00,,,0.00,Wunderground v.1.15,2013-06-18 16:06:00,
2013-06-18 11:12:00,71.5,52.9,29.94,NNW,344,7.0,7.0,52,0.00,,,0.00,Wunderground v.1.15,2013-06-18 16:12:00,
2013-06-18 11:17:00,71.8,53.2,29.94,NNE,25,1.0,10.0,52,0.00,,,0.00,Wunderground v.1.15,2013-06-18 16:17:00,
2013-06-18 11:22:00,72.5,52.8,29.94,North,9,5.0,5.0,50,0.00,,,0.00,Wunderground v.1.15,2013-06-18 16:22:00,
2013-06-18 11:27:00,73.0,52.1,29.94,North,9,3.0,11.0,48,0.00,,,0.00,Wunderground v.1.15,2013-06-18 16:27:00,
2013-06-18 11:32:00,72.7,51.9,29.94,NE,37,0.0,5.0,48,0.00,,,0.00,Wunderground v.1.15,2013-06-18 16:32:00,
2013-06-18 11:37:00,73.3,51.8,29.94,NNW,333,9.0,9.0,47,0.00,,,0.00,Wunderground v.1.15,2013-06-18 16:37:00,
2013-06-18 11:42:00,73.2,52.3,29.94,NNW,333,0.0,7.0,48,0.00,,,0.00,Wunderground v.1.15,2013-06-18 16:42:00,
2013-06-18 11:47:00,72.7,52.4,29.94,NNE,30,4.0,10.0,49,0.00,,,0.00,Wunderground v.1.15,2013-06-18 16:47:00,
2013-06-18 11:52:00,72.3,52.1,29.94,NNE,30,5.0,10.0,49,0.00,,,0.00,Wunderground v.1.15,2013-06-18 16:52:00,
2013-06-18 11:57:00,72.5,52.2,29.94,NNW,329,6.0,12.0,49,0.00,,,0.00,Wunderground v.1.15,2013-06-18 16:57:00,
2013-06-18 12:02:00,72.8,52.0,29.93,NNW,348,9.0,10.0,48,0.00,,,0.00,Wunderground v.1.15,2013-06-18 17:02:00,
2013-06-18 12:07:00,73.0,52.7,29.93,NNW,346,7.0,11.0,49,0.00,,,0.00,Wunderground v.1.15,2013-06-18 17:07:00,
2013-06-18 12:12:00,73.2,52.9,29.93,North,360,7.0,11.0,49,0.00,,,0.00,Wunderground v.1.15,2013-06-18 17:12:00,
2013-06-18 12:17:00,73.2,54.0,29.94,NNW,345,6.0,12.0,51,0.00,,,0.00,Wunderground v.1.15,2013-06-18 17:17:00,
2013-06-18 12:22:00,73.3,54.1,29.94,NNW,342,4.0,12.0,51,0.00,,,0.00,Wunderground v.1.15,2013-06-18 17:22:00,
2013-06-18 12:27:00,73.5,53.7,29.94,North,360,10.0,14.0,50,0.00,,,0.00,Wunderground v.1.15,2013-06-18 17:27:00,
2013-06-18 12:32:00,73.5,53.2,29.94,North,351,9.0,11.0,49,0.00,,,0.00,Wunderground v.1.15,2013-06-18 17:32:00,
2013-06-18 12:37:00,73.5,53.7,29.94,NNW,338,7.0,11.0,50,0.00,,,0.00,Wunderground v.1.15,2013-06-18 17:37:00,
2013-06-18 12:42:00,73.5,54.3,29.94,North,11,7.0,12.0,51,0.00,,,0.00,Wunderground v.1.15,2013-06-18 17:42:00,
2013-06-18 12:47:00,73.9,53.5,29.93,NNW,341,4.0,12.0,49,0.00,,,0.00,Wunderground v.1.15,2013-06-18 17:47:00,
2013-06-18 12:52:00,73.3,52.4,29.93,NNE,26,4.0,12.0,48,0.00,,,0.00,Wunderground v.1.15,2013-06-18 17:52:00,
2013-06-18 12:57:00,73.3,52.4,29.93,North,351,6.0,14.0,48,0.00,,,0.00,Wunderground v.1.15,2013-06-18 17:57:00,
2013-06-18 13:02:00,73.5,52.6,29.93,North,351,5.0,10.0,48,0.00,,,0.00,Wunderground v.1.15,2013-06-18 18:02:00,
2013-06-18 13:07:00,73.7,52.2,29.93,NNE,32,12.0,14.0,47,0.00,,,0.00,Wunderground v.1.15,2013-06-18 18:07:00,
2013-06-18 13:12:00,73.7,52.8,29.93,North,5,3.0,10.0,48,0.00,,,0.00,Wunderground v.1.15,2013-06-18 18:12:00,
2013-06-18 13:17:00,74.0,53.1,29.93,NNE,15,5.0,13.0,48,0.00,,,0.00,Wunderground v.1.15,2013-06-18 18:17:00,
2013-06-18 13:22:00,74.6,52.4,29.93,NNW,333,10.0,10.0,46,0.00,,,0.00,Wunderground v.1.15,2013-06-18 18:22:00,
2013-06-18 13:27:00,74.6,52.4,29.93,North,11,2.0,12.0,46,0.00,,,0.00,Wunderground v.1.15,2013-06-18 18:27:00,
2013-06-18 13:32:00,74.6,51.9,29.92,NNE,13,10.0,10.0,45,0.00,,,0.00,Wunderground v.1.15,2013-06-18 18:32:00,
2013-06-18 13:37:00,74.9,52.7,29.92,NNE,18,7.0,11.0,46,0.00,,,0.00,Wunderground v.1.15,2013-06-18 18:37:00,
2013-06-18 13:42:00,74.6,52.4,29.92,NNW,336,6.0,9.0,46,0.00,,,0.00,Wunderground v.1.15,2013-06-18 18:42:00,
2013-06-18 13:47:00,74.7,52.5,29.92,North,360,10.0,10.0,46,0.00,,,0.00,Wunderground v.1.15,2013-06-18 18:47:00,
2013-06-18 13:52:00,74.6,52.4,29.92,NNE,19,1.0,10.0,46,0.00,,,0.00,Wunderground v.1.15,2013-06-18 18:52:00,
2013-06-18 13:57:00,75.3,52.5,29.92,NNE,17,7.0,10.0,45,0.00,,,0.00,Wunderground v.1.15,2013-06-18 18:57:00,
2013-06-18 14:02:00,75.4,53.2,29.92,NNE,20,0.0,6.0,46,0.00,,,0.00,Wunderground v.1.15,2013-06-18 19:02:00,
2013-06-18 14:07:00,76.0,53.1,29.92,NNE,14,10.0,14.0,45,0.00,,,0.00,Wunderground v.1.15,2013-06-18 19:07:00,
2013-06-18 14:12:00,75.4,52.6,29.92,NNW,346,7.0,10.0,45,0.00,,,0.00,Wunderground v.1.15,2013-06-18 19:12:00,
2013-06-18 14:17:00,75.3,51.9,29.92,NNW,334,6.0,14.0,44,0.00,,,0.00,Wunderground v.1.15,2013-06-18 19:17:00,
2013-06-18 14:22:00,75.1,52.9,29.92,North,351,5.0,12.0,46,0.00,,,0.00,Wunderground v.1.15,2013-06-18 19:22:00,
2013-06-18 14:27:00,75.3,51.9,29.92,NNE,14,7.0,12.0,44,0.00,,,0.00,Wunderground v.1.15,2013-06-18 19:27:00,
2013-06-18 14:32:00,75.6,53.9,29.91,North,350,5.0,12.0,47,0.00,,,0.00,Wunderground v.1.15,2013-06-18 19:32:00,
2013-06-18 14:37:00,75.4,52.6,29.91,North,360,8.0,12.0,45,0.00,,,0.00,Wunderground v.1.15,2013-06-18 19:37:00,
2013-06-18 14:42:00,75.6,52.8,29.91,NNE,28,7.0,10.0,45,0.00,,,0.00,Wunderground v.1.15,2013-06-18 19:42:00,
2013-06-18 14:48:00,75.6,52.1,29.91,NNE,20,4.0,10.0,44,0.00,,,0.00,Wunderground v.1.15,2013-06-18 19:48:00,
2013-06-18 14:53:00,76.3,52.2,29.91,North,351,0.0,8.0,43,0.00,,,0.00,Wunderground v.1.15,2013-06-18 19:53:00,
2013-06-18 14:58:00,76.3,51.5,29.91,NNW,327,4.0,8.0,42,0.00,,,0.00,Wunderground v.1.15,2013-06-18 19:58:00,
2013-06-18 15:03:00,76.5,52.3,29.91,North,9,6.0,8.0,43,0.00,,,0.00,Wunderground v.1.15,2013-06-18 20:03:00,
2013-06-18 15:08:00,76.5,51.7,29.91,North,360,0.0,12.0,42,0.00,,,0.00,Wunderground v.1.15,2013-06-18 20:08:00,
2013-06-18 15:13:00,77.2,51.7,29.91,North,351,10.0,12.0,41,0.00,,,0.00,Wunderground v.1.15,2013-06-18 20:13:00,
2013-06-18 15:18:00,76.8,52.0,29.91,NNW,334,6.0,12.0,42,0.00,,,0.00,Wunderground v.1.15,2013-06-18 20:18:00,
2013-06-18 15:23:00,76.5,53.0,29.91,NNE,18,7.0,11.0,44,0.00,,,0.00,Wunderground v.1.15,2013-06-18 20:23:00,
2013-06-18 15:28:00,76.5,51.7,29.91,NNE,28,5.0,11.0,42,0.00,,,0.00,Wunderground v.1.15,2013-06-18 20:28:00,
2013-06-18 15:33:00,77.4,52.5,29.91,North,10,5.0,9.0,42,0.00,,,0.00,Wunderground v.1.15,2013-06-18 20:33:00,
2013-06-18 15:38:00,77.4,51.2,29.91,NNE,24,4.0,11.0,40,0.00,,,0.00,Wunderground v.1.15,2013-06-18 20:38:00,
2013-06-18 15:43:00,77.6,51.4,29.91,NW,304,7.0,7.0,40,0.00,,,0.00,Wunderground v.1.15,2013-06-18 20:43:00,
2013-06-18 15:48:00,78.1,51.8,29.91,East,90,1.0,9.0,40,0.00,,,0.00,Wunderground v.1.15,2013-06-18 20:48:00,
2013-06-18 15:53:00,78.1,54.4,29.91,ENE,61,0.0,6.0,44,0.00,,,0.00,Wunderground v.1.15,2013-06-18 20:53:00,
2013-06-18 15:58:00,78.1,53.1,29.91,East,97,0.0,6.0,42,0.00,,,0.00,Wunderground v.1.15,2013-06-18 20:58:00,
2013-06-18 16:03:00,78.1,53.1,29.90,East,82,0.0,3.0,42,0.00,,,0.00,Wunderground v.1.15,2013-06-18 21:03:00,
2013-06-18 16:08:00,77.7,52.8,29.90,NE,38,2.0,7.0,42,0.00,,,0.00,Wunderground v.1.15,2013-06-18 21:08:00,
2013-06-18 16:13:00,77.2,52.3,29.90,ENE,75,0.0,7.0,42,0.00,,,0.00,Wunderground v.1.15,2013-06-18 21:13:00,
2013-06-18 16:18:00,77.4,51.9,29.90,ENE,73,0.0,8.0,41,0.00,,,0.00,Wunderground v.1.15,2013-06-18 21:18:00,
2013-06-18 16:23:00,78.5,52.2,29.90,East,86,0.0,3.0,40,0.00,,,0.00,Wunderground v.1.15,2013-06-18 21:23:00,
2013-06-18 16:28:00,78.6,52.9,29.90,ESE,111,7.0,10.0,41,0.00,,,0.00,Wunderground v.1.15,2013-06-18 21:28:00,
2013-06-18 16:33:00,78.1,53.1,29.90,ENE,57,0.0,7.0,42,0.00,,,0.00,Wunderground v.1.15,2013-06-18 21:33:00,
2013-06-18 16:38:00,77.9,53.0,29.90,ENE,58,4.0,7.0,42,0.00,,,0.00,Wunderground v.1.15,2013-06-18 21:38:00,
2013-06-18 16:43:00,78.6,54.2,29.90,NE,54,7.0,7.0,43,0.00,,,0.00,Wunderground v.1.15,2013-06-18 21:43:00,
2013-06-18 16:48:00,78.5,53.5,29.89,East,79,0.0,7.0,42,0.00,,,0.00,Wunderground v.1.15,2013-06-18 21:48:00,
2013-06-18 16:53:00,78.3,54.0,29.89,SE,128,0.0,9.0,43,0.00,,,0.00,Wunderground v.1.15,2013-06-18 21:53:00,
2013-06-18 16:59:00,78.6,51.6,29.89,ENE,60,4.0,9.0,39,0.00,,,0.00,Wunderground v.1.15,2013-06-18 21:59:00,
2013-06-18 17:04:00,78.6,52.3,29.89,East,92,0.0,3.0,40,0.00,,,0.00,Wunderground v.1.15,2013-06-18 22:04:00,
2013-06-18 17:09:00,79.4,51.6,29.89,East,92,2.0,3.0,38,0.00,,,0.00,Wunderground v.1.15,2013-06-18 22:09:00,
2013-06-18 17:14:00,79.0,52.6,29.89,North,360,0.0,6.0,40,0.00,,,0.00,Wunderground v.1.15,2013-06-18 22:14:00,
2013-06-18 17:19:00,78.6,52.3,29.89,North,360,3.0,7.0,40,0.00,,,0.00,Wunderground v.1.15,2013-06-18 22:19:00,
2013-06-18 17:24:00,78.3,51.3,29.89,North,9,5.0,9.0,39,0.00,,,0.00,Wunderground v.1.15,2013-06-18 22:24:00,
2013-06-18 17:29:00,78.5,52.8,29.89,ENE,61,0.0,9.0,41,0.00,,,0.00,Wunderground v.1.15,2013-06-18 22:29:00,
2013-06-18 17:34:00,78.5,52.2,29.89,NE,44,4.0,5.0,40,0.00,,,0.00,Wunderground v.1.15,2013-06-18 22:34:00,
2013-06-18 17:39:00,78.5,52.2,29.89,North,360,2.0,5.0,40,0.00,,,0.00,Wunderground v.1.15,2013-06-18 22:39:00,
2013-06-18 17:44:00,78.5,52.2,29.89,North,360,1.0,6.0,40,0.00,,,0.00,Wunderground v.1.15,2013-06-18 22:44:00,
2013-06-18 17:49:00,78.8,52.4,29.89,NNE,21,1.0,7.0,40,0.00,,,0.00,Wunderground v.1.15,2013-06-18 22:49:00,
2013-06-18 17:54:00,78.8,52.4,29.89,East,92,4.0,5.0,40,0.00,,,0.00,Wunderground v.1.15,2013-06-18 22:54:00,
2013-06-18 17:59:00,78.5,52.2,29.89,ENE,75,0.0,7.0,40,0.00,,,0.00,Wunderground v.1.15,2013-06-18 22:59:00,
2013-06-18 18:04:00,78.6,52.3,29.89,ENE,63,0.0,3.0,40,0.00,,,0.00,Wunderground v.1.15,2013-06-18 23:04:00,
2013-06-18 18:09:00,78.8,52.4,29.89,NE,40,5.0,5.0,40,0.00,,,0.00,Wunderground v.1.15,2013-06-18 23:09:00,
2013-06-18 18:14:00,78.5,51.5,29.89,NE,40,0.0,3.0,39,0.00,,,0.00,Wunderground v.1.15,2013-06-18 23:14:00,
2013-06-18 18:19:00,78.6,53.6,29.88,ENE,78,0.0,6.0,42,0.00,,,0.00,Wunderground v.1.15,2013-06-18 23:19:00,
2013-06-18 18:24:00,78.6,52.9,29.88,North,360,3.0,6.0,41,0.00,,,0.00,Wunderground v.1.15,2013-06-18 23:24:00,
2013-06-18 18:29:00,78.3,52.7,29.88,ESE,111,0.0,7.0,41,0.00,,,0.00,Wunderground v.1.15,2013-06-18 23:29:00,
2013-06-18 18:34:00,78.5,52.2,29.88,SSE,148,0.0,5.0,40,0.00,,,0.00,Wunderground v.1.15,2013-06-18 23:34:00,
2013-06-18 18:39:00,78.5,52.2,29.88,SE,129,0.0,5.0,40,0.00,,,0.00,Wunderground v.1.15,2013-06-18 23:39:00,
2013-06-18 18:44:00,78.5,51.5,29.88,North,360,2.0,5.0,39,0.00,,,0.00,Wunderground v.1.15,2013-06-18 23:44:00,
2013-06-18 18:49:00,78.5,52.8,29.88,East,92,0.0,5.0,41,0.00,,,0.00,Wunderground v.1.15,2013-06-18 23:49:00,
2013-06-18 18:54:00,78.5,52.8,29.88,North,360,0.0,7.0,41,0.00,,,0.00,Wunderground v.1.15,2013-06-18 23:54:00,
2013-06-18 18:59:00,78.3,52.0,29.88,North,360,0.0,7.0,40,0.00,,,0.00,Wunderground v.1.15,2013-06-18 23:59:00,
2013-06-18 19:04:00,78.5,52.2,29.88,ESE,103,0.0,1.0,40,0.00,,,0.00,Wunderground v.1.15,2013-06-19 00:04:00,
2013-06-18 19:09:00,78.6,52.3,29.88,East,93,2.0,2.0,40,0.00,,,0.00,Wunderground v.1.15,2013-06-19 00:09:00,
2013-06-18 19:14:00,78.1,53.1,29.88,ENE,64,1.0,6.0,42,0.00,,,0.00,Wunderground v.1.15,2013-06-19 00:14:00,
2013-06-18 19:19:00,77.9,52.3,29.87,East,87,0.0,6.0,41,0.00,,,0.00,Wunderground v.1.15,2013-06-19 00:19:00,
2013-06-18 19:24:00,77.6,52.0,29.87,NE,49,3.0,5.0,41,0.00,,,0.00,Wunderground v.1.15,2013-06-19 00:24:00,
2013-06-18 19:29:00,77.6,52.0,29.87,NNE,25,2.0,5.0,41,0.00,,,0.00,Wunderground v.1.15,2013-06-19 00:29:00,
2013-06-18 19:34:00,77.9,52.3,29.87,NNE,25,0.0,2.0,41,0.00,,,0.00,Wunderground v.1.15,2013-06-19 00:34:00,
2013-06-18 19:39:00,77.7,52.1,29.87,ENE,74,4.0,4.0,41,0.00,,,0.00,Wunderground v.1.15,2013-06-19 00:39:00,
2013-06-18 19:44:00,77.6,52.7,29.87,ESE,104,0.0,5.0,42,0.00,,,0.00,Wunderground v.1.15,2013-06-19 00:44:00,
2013-06-18 19:50:00,77.6,53.3,29.87,East,86,4.0,4.0,43,0.00,,,0.00,Wunderground v.1.15,2013-06-19 00:50:00,
2013-06-18 19:55:00,77.2,52.3,29.87,East,88,0.0,5.0,42,0.00,,,0.00,Wunderground v.1.15,2013-06-19 00:55:00,
2013-06-18 20:00:00,77.0,52.1,29.87,East,96,0.0,1.0,42,0.00,,,0.00,Wunderground v.1.15,2013-06-19 01:00:00,
2013-06-18 20:05:00,76.8,53.2,29.87,East,95,1.0,1.0,44,0.00,,,0.00,Wunderground v.1.15,2013-06-19 01:05:00,
2013-06-18 20:10:00,76.7,53.1,29.87,East,93,0.0,1.0,44,0.00,,,0.00,Wunderground v.1.15,2013-06-19 01:10:00,
2013-06-18 20:15:00,76.5,53.0,29.87,East,90,0.0,5.0,44,0.00,,,0.00,Wunderground v.1.15,2013-06-19 01:15:00,
2013-06-18 20:20:00,76.1,52.6,29.87,East,93,0.0,1.0,44,0.00,,,0.00,Wunderground v.1.15,2013-06-19 01:20:00,
2013-06-18 20:25:00,76.1,52.6,29.87,East,93,1.0,3.0,44,0.00,,,0.00,Wunderground v.1.15,2013-06-19 01:25:00,
2013-06-18 20:30:00,76.0,52.5,29.87,East,93,0.0,1.0,44,0.00,,,0.00,Wunderground v.1.15,2013-06-19 01:30:00,
2013-06-18 20:35:00,75.6,52.8,29.87,East,93,0.0,1.0,45,0.00,,,0.00,Wunderground v.1.15,2013-06-19 01:35:00,
2013-06-18 20:40:00,75.4,53.2,29.87,East,91,0.0,0.0,46,0.00,,,0.00,Wunderground v.1.15,2013-06-19 01:40:00,
2013-06-18 20:45:00,75.1,52.9,29.87,East,91,0.0,0.0,46,0.00,,,0.00,Wunderground v.1.15,2013-06-19 01:45:00,
2013-06-18 20:50:00,74.7,53.1,29.87,East,91,0.0,0.0,47,0.00,,,0.00,Wunderground v.1.15,2013-06-19 01:50:00,
2013-06-18 20:55:00,74.4,53.4,29.87,East,91,0.0,0.0,48,0.00,,,0.00,Wunderground v.1.15,2013-06-19 01:55:00,
2013-06-18 21:00:00,73.9,53.5,29.87,East,91,0.0,0.0,49,0.00,,,0.00,Wunderground v.1.15,2013-06-19 02:00:00,
2013-06-18 21:05:00,73.5,53.2,29.87,East,91,0.0,0.0,49,0.00,,,0.00,Wunderground v.1.15,2013-06-19 02:05:00,
2013-06-18 21:10:00,73.0,53.3,29.87,East,91,0.0,0.0,50,0.00,,,0.00,Wunderground v.1.15,2013-06-19 02:10:00,
2013-06-18 21:15:00,72.8,53.6,29.87,East,91,0.0,0.0,51,0.00,,,0.00,Wunderground v.1.15,2013-06-19 02:15:00,
2013-06-18 21:20:00,72.5,53.9,29.87,East,91,0.0,0.0,52,0.00,,,0.00,Wunderground v.1.15,2013-06-19 02:20:00,
2013-06-18 21:25:00,72.1,54.0,29.87,East,91,0.0,0.0,53,0.00,,,0.00,Wunderground v.1.15,2013-06-19 02:25:00,
2013-06-18 21:30:00,71.8,54.3,29.87,East,91,0.0,0.0,54,0.00,,,0.00,Wunderground v.1.15,2013-06-19 02:30:00,
2013-06-18 21:35:00,71.6,54.1,29.88,East,91,0.0,3.0,54,0.00,,,0.00,Wunderground v.1.15,2013-06-19 02:35:00,
2013-06-18 21:40:00,71.5,54.5,29.88,East,91,0.0,0.0,55,0.00,,,0.00,Wunderground v.1.15,2013-06-19 02:40:00,
2013-06-18 21:45:00,71.1,53.6,29.88,East,91,0.0,3.0,54,0.00,,,0.00,Wunderground v.1.15,2013-06-19 02:45:00,
2013-06-18 21:50:00,70.9,53.9,29.89,East,91,0.0,0.0,55,0.00,,,0.00,Wunderground v.1.15,2013-06-19 02:50:00,
2013-06-18 21:55:00,70.8,54.3,29.89,East,91,0.0,0.0,56,0.00,,,0.00,Wunderground v.1.15,2013-06-19 02:55:00,
2013-06-18 22:00:00,70.6,54.1,29.89,East,91,0.0,0.0,56,0.00,,,0.00,Wunderground v.1.15,2013-06-19 03:00:00,
2013-06-18 22:05:00,70.4,54.0,29.89,East,91,0.0,0.0,56,0.00,,,0.00,Wunderground v.1.15,2013-06-19 03:05:00,
2013-06-18 22:10:00,70.4,54.0,29.89,East,91,0.0,1.0,56,0.00,,,0.00,Wunderground v.1.15,2013-06-19 03:10:00,
2013-06-18 22:15:00,70.6,54.1,29.90,East,91,0.0,3.0,56,0.00,,,0.00,Wunderground v.1.15,2013-06-19 03:15:00,
2013-06-18 22:20:00,70.6,54.1,29.90,East,91,0.0,0.0,56,0.00,,,0.00,Wunderground v.1.15,2013-06-19 03:20:00,
2013-06-18 22:25:00,70.4,54.0,29.90,East,91,0.0,3.0,56,0.00,,,0.00,Wunderground v.1.15,2013-06-19 03:25:00,
2013-06-18 22:30:00,70.4,54.4,29.90,East,92,0.0,3.0,57,0.00,,,0.00,Wunderground v.1.15,2013-06-19 03:30:00,
2013-06-18 22:35:00,70.3,54.3,29.90,East,92,4.0,4.0,57,0.00,,,0.00,Wunderground v.1.15,2013-06-19 03:35:00,
2013-06-18 22:40:00,70.1,53.7,29.90,East,92,0.0,0.0,56,0.00,,,0.00,Wunderground v.1.15,2013-06-19 03:40:00,
2013-06-18 22:45:00,70.1,53.7,29.90,East,90,0.0,3.0,56,0.00,,,0.00,Wunderground v.1.15,2013-06-19 03:45:00,
2013-06-18 22:50:00,70.1,54.2,29.90,East,90,0.0,0.0,57,0.00,,,0.00,Wunderground v.1.15,2013-06-19 03:50:00,
2013-06-18 22:55:00,69.9,54.0,29.90,East,93,0.0,4.0,57,0.00,,,0.00,Wunderground v.1.15,2013-06-19 03:55:00,
2013-06-18 23:00:00,69.8,54.4,29.89,East,93,0.0,0.0,58,0.00,,,0.00,Wunderground v.1.15,2013-06-19 04:00:00,
2013-06-18 23:01:00,69.8,54.4,29.89,East,93,0.0,0.0,58,0.00,,,0.00,Wunderground v.1.15,2013-06-19 04:01:00,
2013-06-18 23:03:00,69.8,54.4,29.89,East,89,0.0,3.0,58,0.00,,,0.00,Wunderground v.1.15,2013-06-19 04:03:00,
2013-06-18 23:08:00,69.6,54.6,29.89,East,90,0.0,4.0,59,0.00,,,0.00,Wunderground v.1.15,2013-06-19 04:08:00,
2013-06-18 23:13:00,69.6,54.2,29.89,East,97,0.0,3.0,58,0.00,,,0.00,Wunderground v.1.15,2013-06-19 04:13:00,
2013-06-18 23:18:00,69.6,54.2,29.89,East,98,0.0,3.0,58,0.00,,,0.00,Wunderground v.1.15,2013-06-19 04:18:00,
2013-06-18 23:23:00,69.4,54.0,29.89,East,94,0.0,4.0,58,0.00,,,0.00,Wunderground v.1.15,2013-06-19 04:23:00,
2013-06-18 23:27:00,69.3,53.9,29.89,ESE,114,3.0,6.0,58,0.00,,,0.00,Wunderground v.1.15,2013-06-19 04:27:00,
2013-06-18 23:32:00,69.1,53.7,29.89,East,91,0.0,2.0,58,0.00,,,0.00,Wunderground v.1.15,2013-06-19 04:32:00,
2013-06-18 23:34:00,69.1,53.7,29.89,ESE,102,0.0,2.0,58,0.00,,,0.00,Wunderground v.1.15,2013-06-19 04:34:00,
2013-06-18 23:39:00,69.1,54.2,29.89,East,101,0.0,3.0,59,0.00,,,0.00,Wunderground v.1.15,2013-06-19 04:39:00,
2013-06-18 23:40:00,69.1,53.7,29.89,East,101,0.0,0.0,58,0.00,,,0.00,Wunderground v.1.15,2013-06-19 04:40:00,
2013-06-18 23:45:00,68.9,54.0,29.89,SE,131,0.0,6.0,59,0.00,,,0.00,Wunderground v.1.15,2013-06-19 04:45:00,
2013-06-18 23:50:00,68.9,54.0,29.89,ESE,112,0.0,1.0,59,0.00,,,0.00,Wunderground v.1.15,2013-06-19 04:50:00,
2013-06-18 23:55:00,68.9,54.0,29.89,East,92,0.0,3.0,59,0.00,,,0.00,Wunderground v.1.15,2013-06-19 04:55:00,